STARLINK-37274, 68724

Orbit data source: Space-Track

STARLINK-37274, 68724 is a payload satellite owned by SpaceX/Seattle (US) in LEO that was launched on Tue, 14 Apr 2026 UTC via an FALCON 9 launch vehicle from the Air Force Eastern Test Range (AFETR). Payload-class satellites include a variety of spacecraft equipped with specific instruments for various scientific and technological missions. These include communications satellites like Starlink; space stations such as the ISS; scientific satellites like the Hubble; Earth observation satellites from companies like Planet Labs, Umbra, and HawkEye 360; GPS; miniature CubeSats for education and research; and military/defense satellites.

Loading next visibility...
Identifier
68724, 2026-081AB
Orbit
LEO
Country
Flag of USUS
Related business
Manufacturer
SpaceX/Seattle
Mission
Operational spacecraft
Bus & Motor
STARLINK V2MO, Unknown motor
Mass
575 kg wet, ~530 kg dry
Launch date (UTC)
2026-04-14 (2 months ago)
Launch vehicle
FALCON 9
Launch site
Air Force Eastern Test Range (AFETR)
Object type
Payload
Rocket body
Debris
Shape & HBR
Unknown shape, 14.5 m
Radar Cross Section
Large (>1 m²)

Expand to show TLE details & history
Last TLE update: 1 day ago

TLE from 1 day ago
0 STARLINK-37274
1 68724U 26081AB  26170.56325408  .00030966  00000-0  92358-3 0  9997
2 68724  53.1603 279.9327 0001405  82.3608 277.7554 15.34408878 10357
Epoch: 2026-06-19T13:31Z
TLE epoch observation values (Epoch: 2026-06-19T13:31:05.152Z)
Latitude
-0.00003°
Longitude
169.37077°
Altitude
463.449 km
Speed
7.636 km/s
True Right ascension
18h 39m 43s
True Declination
0° 00' 00"
Sunlit
Object was in full shadow at epoch
Visualization orbit readout
Latitude
Unknown
Longitude
Unknown
Altitude
Unknown
Speed
Unknown
Apparent Right ascension
Unknown
Apparent Declination
Unknown
Sunlit
N/A
Visualization observer readout
Local Sidereal Time
07:18:28
Azimuth
Unknown
Elevation
Unknown
Doppler factor
Unknown
Orbital elements
Apogee altitude
463.895 km
Perigee altitude
461.973 km
Semi-major axis
6,841.071 km
Eccentricity
0.00014
Inclination
53.1603°
RAAN
279.9327°
Arg. of periapsis
82.3608°
True anomaly
277.73945°
Mean anomaly
277.7554°
Eccentric anomaly
277.74742°
Mean motion
3.83581 °/min
Orbital period
93.85 mins
BSTAR
0.00092358
Loading maneuver chart data...
Computing Atmospheric mass density...
Loading historical data...
Loading historical data...
Loading historical data...
Loading historical data...
Loading historical data...
Loading historical data...
Loading historical data...

Documentation

Showing up to 5 results
|